This is the latest recevied weather packets stored in our database for station/object W1GK. If no packets are shown the sender has not sent any weather packets the latest 10 day(s).
| Time | Temp. | Humidity | Pressure | Rain* | Wind** | Luminosity | Snow |
|---|---|---|---|---|---|---|---|
| 1787421000 | 40° C | 17% | 1017.6 hPa | 0 mm | - | 740 W/m² | - |
| 1787420399 | 39.44° C | 17% | 1017.7 hPa | 0 mm | - | 726 W/m² | - |
| 1787419799 | 38.33° C | 18% | 1017.7 hPa | 0 mm | - | 707 W/m² | - |
| 1787419199 | 38.33° C | 18% | 1017.7 hPa | 0 mm | - | 686 W/m² | - |
| 1787418599 | 38.89° C | 18% | 1017.7 hPa | 0 mm | - | 670 W/m² | - |
| 1787418001 | 38.33° C | 18% | 1017.7 hPa | 0 mm | - | 642 W/m² | - |
| 1787417401 | 37.78° C | 18% | 1017.7 hPa | 0 mm | - | 619 W/m² | - |
| 1787416800 | 37.22° C | 18% | 1017.7 hPa | 0 mm | - | 592 W/m² | - |
| 1787416199 | 37.22° C | 19% | 1017.6 hPa | 0 mm | - | 570 W/m² | - |
| 1787415600 | 36.67° C | 19% | 1017.7 hPa | 0 mm | - | 540 W/m² | - |
| 1787415001 | 36.11° C | 20% | 1017.6 hPa | 0 mm | - | 513 W/m² | - |
| 1787414401 | 35.56° C | 20% | 1017.5 hPa | 0 mm | - | 487 W/m² | - |
| 1787413800 | 35.56° C | 20% | 1017.5 hPa | 0 mm | - | 459 W/m² | - |
| 1787413199 | 35° C | 20% | 1017.4 hPa | 0 mm | - | 429 W/m² | - |
| 1787412599 | 35° C | 21% | 1017.4 hPa | 0 mm | - | 397 W/m² | - |
| 1787412000 | 34.44° C | 21% | 1017.5 hPa | 0 mm | - | 367 W/m² | - |
| 1787411400 | 33.89° C | 22% | 1017.4 hPa | 0 mm | - | 336 W/m² | - |
| 1787410799 | 33.89° C | 22% | 1017.3 hPa | 0 mm | - | 304 W/m² | - |
| 1787410198 | 33.33° C | 23% | 1017.2 hPa | 0 mm | - | 272 W/m² | - |
| 1787409597 | 32.78° C | 23% | 1017.1 hPa | 0 mm | - | 237 W/m² | - |
| 1787408999 | 32.22° C | 24% | 1017.1 hPa | 0 mm | - | 209 W/m² | - |
| 1787408399 | 31.67° C | 24% | 1017.1 hPa | 0 mm | - | 179 W/m² | - |
| 1787407800 | 31.67° C | 25% | 1017 hPa | 0 mm | - | 151 W/m² | - |
| 1787407200 | 31.11° C | 26% | 1016.9 hPa | 0 mm | - | 123 W/m² | - |
| 1787406598 | 30.56° C | 26% | 1016.8 hPa | 0 mm | - | 86 W/m² | - |
* Rain latest hour (hover to see other rain measurements)
** Current wind speed in m/s (hover to see current wind gust speed)